Regional Weather Roundup
Issued by NWS

Home | Current Version | Previous Version | Text Only | Print | Product List | Glossary Off
Versions: 1 2 3 4 5 6 7 8 9 10 11 12 13 14 15 16 17 18 19 20 21 22 23 24 25 26 27 28 29 30 31 32 33 34 35 36 37 38 39 40 41 42 43 44 45 46 47 48 49 50

000
ASUS43 KMKX 250800
RWRWI

WISCONSIN REGIONAL WEATHER ROUNDUP
NATIONAL WEATHER SERVICE MILWAUKEE/SULLIVAN WI
300 AM CDT SUN JUN 25 2017

NOTE: "FAIR" INDICATES FEW OR NO CLOUDS BELOW 12,000 FEET WITH NO
SIGNIFICANT WEATHER AND/OR OBSTRUCTIONS TO VISIBILITY.

WIZ001-002-006>008-014>016-023>028-250900-
NORTHWEST WISCONSIN

CITY           SKY/WX    TMP DP  RH WIND       PRES   REMARKS
SUPERIOR ARPT  NOT AVBL
ASHLAND        CLOUDY    52  49  89 W7        29.98S
HAYWARD        CLEAR     52  48  86 VRB3      30.00F
SIREN          PTCLDY    50  48  93 CALM      30.04S
CUMBERLAND     CLEAR     50  46  87 W8        30.03S
RICE LAKE      CLEAR     51  48  89 W5        30.04S
CHETEK         CLEAR     51  49  90 NW5       30.03S
LADYSMITH      PTCLDY    52  47  85 W8        30.02S
EAU CLAIRE     NOT AVBL
MENOMONIE      CLEAR     53  48  83 W8        30.05S
NEW RICHMOND   PTCLDY    50  47  92 W6        30.06S
OSCEOLA        CLOUDY    54  49  82 W8        30.08F
$$

WIZ003>005-009-010-017-018-250900-
NORTH CENTRAL WISCONSIN

CITY           SKY/WX    TMP DP  RH WIND       PRES   REMARKS
MANITOWISH WTR CLOUDY    51  51 100 NW7       29.97R
ARBOR VITAE    CLOUDY    53  51  92 NW8       29.96S
WOODRUFF       CLOUDY    53  51  92 NW8       29.96S
RHINELANDER    CLOUDY    51  51 100 W9        29.96S
EAGLE RIVER    CLOUDY    51  51 100 NW6       29.95R
LAND O LAKES   CLOUDY    52  50  95 N7        29.97S
PHILLIPS       PTCLDY    48  48 100 CALM      29.98F
TOMAHAWK       NOT AVBL
MEDFORD        PTCLDY    49  47  93 W7        29.99S
MERRILL        MOCLDY    50  49  98 W7        29.98S
$$

WIZ029-030-035-036-043>047-250900-
CENTRAL WISCONSIN

CITY           SKY/WX    TMP DP  RH WIND       PRES   REMARKS
WAUSAU         MOCLDY    51  48  89 W12       29.96F
MOSINEE        CLOUDY    50  46  87 W7        29.99S
MARSHFIELD     CLEAR     49  45  86 W7        29.99F
STEVENS POINT  MOCLDY    49  46  89 W6        29.99F
WAUPACA        MOCLDY    53  50  90 W6        29.98F
WAUTOMA        PTCLDY    50  48  93 SW6       30.01S
WISC RAPIDS    CLEAR     50  46  86 W8        30.02S
CAMP DOUGLAS   NOT AVBL
$$

WIZ011>013-019>022-031-037>040-048>050-250900-
NORTHEAST WISCONSIN

CITY           SKY/WX    TMP DP  RH WIND       PRES   REMARKS
ANTIGO         DRIZZLE   50  49  98 W8        29.96F
SHAWANO        LGT RAIN  55  51  87 SW6       29.96F
OCONTO         CLOUDY    52  51  95 W6        29.94F
STURGEON BAY   LGT RAIN  54  52  93 W9G18       N/A
GREEN BAY      LGT RAIN  53  53 100 SW3       29.96F
MANITOWOC      NOT AVBL
APPLETON       CLOUDY    50  46  87 W9        29.96F
CLINTONVILLE   CLOUDY    54  46  76 W8        29.97S
OSHKOSH        PTCLDY    52  47  83 W7        29.98F
$$

WIZ032>034-041-042-053>061-250900-
SOUTHWEST WISCONSIN

CITY           SKY/WX    TMP DP  RH WIND       PRES   REMARKS
LA CROSSE      CLEAR     55  50  83 CALM      30.05S
SPARTA         CLEAR     42  42  99 CALM      30.05S
VIROQUA        CLEAR     50  48  95 W7        30.06S
BOSCOBEL       CLEAR     51  49  92 S6        30.07F
PRAIRIE DU CHI CLEAR     53  46  78 CALM      30.08F
PLATTEVILLE    CLEAR     51  51 100 W6        30.08F
$$

WIZ056-057-062-063-064-067-068-250900-
SOUTH CENTRAL WISCONSIN

CITY           SKY/WX    TMP DP  RH WIND       PRES   REMARKS
REEDSBURG      CLEAR     51  48  92 W7        30.04S
BARABOO/DELLS  CLEAR     50  47  89 W5        30.04S
LONE ROCK      NOT AVBL
MINERAL POINT  CLEAR     52  52 100 W7        30.07S
MADISON        CLEAR     53  49  86 VRB7      30.03F
MIDDLETON      CLEAR     52  50  95 W8        30.05S
WATERTOWN      CLEAR     51  50  99 W6        30.03S
MONROE         CLEAR     52  48  87 W12       30.06F
JANESVILLE     CLEAR     52  52 100 W5        30.05S
$$

WIZ051-052-058>065-066-070>072-250900-
SOUTHEAST WISCONSIN

CITY           SKY/WX    TMP DP  RH WIND       PRES   REMARKS
MILWAUKEE      CLEAR     55  49  80 W9        30.02S
WAUKESHA       CLEAR     50  45  81 W9        30.03S
MILWAUKEE/TIMM PTCLDY    52  45  76 W8        30.03S
RACINE         CLEAR     53  48  83 W6        30.04F
KENOSHA        CLEAR     52  47  83 W9        30.03F
FOND DU LAC    PTCLDY    50  46  86 SW7       30.00S
SHEBOYGAN      CLEAR     52  48  86 W9        29.98S
WEST BEND      PTCLDY    50  46  87 W9        30.01S
JUNEAU         CLEAR     48  46  91 SW6       30.03F
$$

LSZ147-162-250900-
LAKE SUPERIOR

STATION/POSITION TIME  TEMP    WIND        PRES    WAVE
                       AIR SEA DIR/SP/G            HT/PER
                 (UTC) (F)     (DEG/KT/KT) (MB)    (FT/S)
W MID LAKE BUOY  0650   44 39  300/  6/  8 1014.5S   1
DEVILS ISLAND    0700   54     310/ 10/ 11 1014.9F
SAXON HARBOR     0730   55     210/  4/  5 1014.6S
$$

LMZ867-665-643>646-250900-
LAKE MICHIGAN

STATION/POSITION TIME  TEMP    WIND        PRES    WAVE
                       AIR SEA DIR/SP/G            HT/PER
                 (UTC) (F)     (DEG/KT/KT) (MB)    (FT/S)
CHAMBERS ISLAND  0740   55     240/  7/ 12 1013.2F
S GREEN BAY BUOY 0730   58     280/ 14/ 17 1013.8F
N MID LAKE BUOY  0650   56 57   90/  2/  2 1013.5F   1
NORTHPORT PIER   0740   56     280/  6/  9 1012.9F
KEWAUNEE LAKESHO 0730   53     270/  7/ 10 1013.8S
SHEBOYGAN LAKESH 0700   54     260/ 12/ 14 1015.0S
PORT WASHINGTON  0740   54     270/  7/ 14 1016.6S
ATWATER BUOY     0609   56 56  260/ 12/ 14 1016.4S
MILWAUKEE LAKESH 0730   55     280/  9/ 12   N/A
S MID LAKE BUOY  0650   59 61  300/ 19/ 21 1016.1R   3/ 5
KENOSHA   LAKESH 0700   56     280/  8/ 14 1016.9
$$

TC  - TEMPERATURE IN CELSIUS
VSB - VISIBILITY IN STATUTE MILES
WCI - WIND CHILL INDEX
HX  - HEAT INDEX





USA.gov is the U.S. government's official web portal to all federal, state and local government web resources and services.